Terminal Aerodrome Forecast
Issued by NWS

Home | Current Version | Previous Version | Text Only | Print | Product List | Glossary On
Versions: 1 2 3 4 5 6 7 8 9 10 11 12 13 14 15 16 17 18 19 20
000
FTUS46 KSEW 271100
TAFHQM
TAF
KHQM 271120Z 2712/2812 27003KT P6SM -SHRA SCT013 BKN045 OVC060
     FM271600 05007KT P6SM SCT025 BKN060
     FM272300 04010KT P6SM SCT050=

USA.gov is the U.S. government's official web portal to all federal, state and local government web resources and services.